www.pogodaiklimat.ru

Погода и климат >> Архив погоды >> Гана >> Акатзи


ПОГОДА в Акатзи

  • Прогноз погоды в Акатзи
  • Монитор погоды в Акатзи

АРХИВ ПОГОДЫ в Акатзи

Время (UTC), дата Ветер
(напр.,м/с)
 
Видим.   Явления Облачность Т
(С)
Тd
(С)
f
(%)
Тe
(С)
Тes
(С)
Комфортность P
(гПа)
Po
(гПа)
Тmin
(С)
Tmax
(С)
R
(мм)
R24
(мм)
S
(см)
21 11.09 ЮЗ 2 12 км 9/6 330 м
[Sc Ac trans]
+24.6 +23.6 94 +33 +33 очень
душно
1012.3 992.2
03 12.09 ЮЗ 3 12 км 9/6 360 м
[Sc Ac trans]
+24.6 +23.8 95 +33 +33 очень
душно
1011.3 991.2
09 12.09 СЗ 3 16 км 8/8 360 м
[Cu Sc]
+27.5 +24.2 82 +38 +40 очень
душно
1013.6 993.6
12 12.09 ЮЗ 4 18 км 8/8 360 м
[Cu Sc]
+29.5 +24.1 73 +41 +44 опасность
перегрева
1012.8 993.0
15 12.09 ЮЗ 4 19 км 8/8 360 м
[Cu Sc]
+30.5 +24.0 68 +42 +43 опасность
перегрева
1010.3 990.6
18 12.09 ЮЗ 4 19 км 6/4 360 м
[Sc Ci sp]
+26.0 +23.4 86 +35 +35 очень
душно
1011.6 991.6 +30.5
21 12.09 штиль 0 16 км 9/5 360 м
[Sc Ac trans]
+25.5 +24.0 91 +35 +35 очень
душно
1013.4 993.3
00 13.09 ЮЗ 2 12 км 9/5 360 м
[Sc Ac trans]
+25.0 +23.6 92 +34 +34 очень
душно
1013.7 993.6
03 13.09 штиль 0 12 км 9/5 360 м
[Sc Ac trans]
+25.0 +23.6 92 +34 +34 очень
душно
1012.7 992.6
06 13.09 штиль 0 14 км 9/6 360 м
[Sc Ac trans]
+24.4 +23.3 94 +33 +33 очень
душно
1013.7 993.5 +24.4 40
09 13.09 ЮЗ 1 16 км {дождь} 9/6 330 м
[Sc Ac trans]
+26.0 +24.6 92 +37 +40 очень
душно
1015.6 995.5
12 13.09 ЮЗ 2 16 км в посл. час морось {дождь} 9/8 360 м
[Cu Sc]
+28.5 +24.6 79 +40 +44 очень
душно
1014.1 994.2 0.4
18 13.09 ЮЗ 2 15 км {гроза, дождь} 9/6 360 м
[Sc Ac trans]
+26.6 +23.7 84 +36 +36 очень
душно
1012.4 992.4 +28.7 17
21 13.09 ЮЗ 1 14 км 4/4 330 м
[Sc]
+24.6 +23.8 95 +33 +33 очень
душно
1013.8 993.6
00 14.09 штиль 0 14 км 6/6 330 м
[Sc]
+24.0 +23.4 96 +32 +32 очень
душно
1013.6 993.4
03 14.09 14 км н/о +24.0 +23.3 96 +32 +32 очень
душно
1012.9 992.7
09 14.09 ЮЗ 1 16 км 8/8 360 м
[Cu Sc]
+27.4 +24.1 82 +38 +41 очень
душно
1015.4 995.4
12 14.09 ЮЗ 1 16 км 9/9 360 м
[Cu Sc]
+29.8 +23.8 70 +41 +43 опасность
перегрева
1012.8 993.0
15 14.09 ЮЗ 2 16 км {дождь} 9/5 330 м
[Sc Ac trans]
+24.5 +23.4 94 +33 +36 очень
душно
1010.3 990.2
21 14.09 ЮЗ 2 13 км 8/4 360 м
[Sc Ac trans]
+24.5 +23.5 94 +33 +33 очень
душно
1013.0 992.8
00 15.09 штиль 0 13 км 9/5 360 м
[Sc Ac trans]
+24.9 +24.1 95 +34 +34 очень
душно
1012.4 992.3
06 15.09 З 3 14 км 9/5 360 м
[Sc Ac trans]
+24.2 +23.6 96 +33 +33 очень
душно
1012.3 992.1 +24.0 302
09 15.09 ЮЗ 2 16 км 8/4 360 м
[Cu Sc Ac trans]
+27.7 +24.1 81 +39 +43 очень
душно
1013.6 993.6
18 15.09 ЮЗ 3 18 км 8/5 360 м
[Cb cap Ac trans Cs]
+27.5 +23.8 80 +38 +38 очень
душно
1010.9 991.0 +31.5
21 15.09 ЮЗ 2 13 км 9/5 360 м
[Sc Cs]
+25.5 +23.4 88 +34 +34 очень
душно
1012.5 992.4
00 16.09 штиль 0 13 км 5/3 360 м
[Sc Ac trans]
+24.8 +23.7 94 +34 +34 очень
душно
1012.4 992.3
03 16.09 ЮЗ 2 13 км 5/4 360 м
[Sc Ci sp]
+24.3 +23.6 96 +33 +33 очень
душно
1011.6 991.5
06 16.09 штиль 0 13 км 6/3 360 м
[Sc Cs]
+24.0 +23.3 96 +32 +32 очень
душно
1012.5 992.3 +24.0
09 16.09 ЮЗ 2 16 км 8/8 360 м
[Cu Sc]
+26.5 +24.4 88 +37 +39 очень
душно
1013.6 993.6
12 16.09 ЮЗ 2 16 км 8/8 360 м
[Cu Sc]
+31.5 +23.5 63 +43 +47 опасность
перегрева
1012.2 992.5
15 16.09 ЮЗ 2 16 км 5/5 360 м
[Cu Sc]
+31.5 +23.5 63 +43 +48 опасность
перегрева
1009.4 989.8
18 16.09 ЮЗ 3 14 км 4/4 360 м
[Sc]
+27.0 +23.6 82 +37 +37 очень
душно
1010.2 990.3 +27.0
21 16.09 штиль 0 14 км 6/6 360 м
[Sc]
+25.1 +24.1 94 +35 +35 очень
душно
1012.2 992.1
00 17.09 штиль 0 14 км 8/8 360 м
[Sc]
+25.0 +24.3 96 +35 +35 очень
душно
1012.6 992.5
03 17.09 ЮЗ 2 14 км 8/5 360 м
[Sc Ac trans]
+24.9 +23.7 93 +34 +34 очень
душно
1011.1 991.0
06 17.09 ЮЗ 2 14 км 9/6 360 м
[Sc Ac trans]
+24.5 +23.8 96 +33 +33 очень
душно
1012.3 992.2 +24.5
09 17.09 ЮЗ 2 16 км 9/8 360 м
[Cu Sc]
+26.0 +24.0 89 +36 +38 очень
душно
1013.1 993.0
12 17.09 ЮЗ 1 18 км 9/8 360 м
[Cu Sc Ac trans]
+30.5 +23.8 67 +42 +45 опасность
перегрева
1011.4 991.7
15 17.09 ЮЗ 2 18 км 8/6 360 м
[Cb cap Ac trans]
+30.0 +23.4 68 +41 +44 опасность
перегрева
1008.7 989.0
00 18.09 штиль 0 12 км 9/5 330 м
[Sc Ac trans]
+23.5 +22.8 96 +31 +31 очень
душно
1012.0 991.8 4
03 18.09 штиль 0 12 км 9/6 330 м
[Sc Ac trans]
+23.9 +23.2 96 +32 +32 очень
душно
1010.9 990.8
12 18.09 ЮЗ 2 16 км 8/8 360 м
[Cu Sc]
+30.0 +24.6 73 +43 +47 опасность
перегрева
1011.7 991.9
15 18.09 ЮЗ 4 8000 м гроза, ливневой дождь 9/9 360 м
[Cb cap]
+26.5 +24.5 89 +37 +38 очень
душно
1009.3 989.4

 

Местоположение метеостанции Акатзи (Гана): широта 6.12 долгота 0.80 высота над уровнем моря 175 м.

В архиве по умолчанию представлена погода в Акатзи за последнюю неделю. Архивные данные за месяц целиком и за предыдущие месяцы, начиная с января 2011 года, Вы можете получить, выбрав интересующий диапазон дат из раскрывающегося списка и нажав кнопку "Ввод!".


*Определитесь, кто Вы:
робот инопланетянин человек

Внимание! Время в таблицах - всемирное. Для получения местного времени необходимо прибавить поправку, которая равна 1 ч.

Смотрите также архив погоды в соседних городах и на ближайших метеорологических станциях:

Погода в Ада (Гана) (42 км)
Погода в Ломе (Того) (50 км)
Погода в Хо (Гана) (65 км)
Погода в Акюсе (Гана) (75 км)
Погода в Таблигбо (Того) (93 км)
Погода в Тема (Гана) (105 км)
Погода в Кофоридуа (Гана) (116 км)
Погода в Аккра (Гана) (122 км)
Погода в Атакпаме (Того) (166 км)
Погода в Котону (Бенин) (177 км)

Пояснения к столбцам:

Ветер - указаны скорость ветра в м/с - средняя за 10 мин, порывы в срок и между сроками (в фигурных скобках) и направление, откуда дует ветер: С - северный, СВ - северо-восточный, В - восточный, ЮВ - юго-восточный, Ю - южный, ЮЗ - юго-западный, З - западный, СЗ - северо-западный.
Видимость - горизонтальная дальность видимости в метрах или километрах. При видимости от 1 до 10 км при отсутствии осадков обычно наблюдается дымка, при ухудшении видимости до 1 км и менее - туман. В сухую погоду видимость может ухудшаться дымом, пылью или мглою.
Явления - указаны атмосферные явления, наблюдавшиеся в срок или в последний час перед сроком; фигурными скобками обозначены явления, наблюдавшиеся между сроками (за 1-3 часа до срока); квадратными скобками обозначены град или гололедные отложения с указанием их диаметра в мм.
Облачность - указаны через наклонную черту общая и нижняя облачность в баллах и высота нижней границы облаков в метрах; квадратными скобками обозначены формы облаков: Ci - перистые, Cs - перисто-слоистые, Cc - перисто-кучевые, Ac - высококучевые, As - высокослоистые, Sc - слоисто-кучевые, Ns - слоисто-дождевые, Cu - кучевые, Cb - кучево-дождевые. Подробнее классификацию облаков см. в Атласе облаков (PDF).
T - Температура воздуха - температура, измеренная на высоте 2 м над землей.
Td - Температура точки росы - температура, при понижении до которой содержащийся в воздухе водяной пар достигнет насыщения.
f - Относительная влажность воздуха - влажноcть воздуха, измеренная на высоте 2 м над землей.
Te - Эффективная температура - температура, которую ощущает одетый по сезону человек в тени. Характеристика душности погоды. При расчете учитывается влияние влажности воздуха и скорости ветра на теплоощущения человека.
Tes - Эффективная температура на солнце - температура, которую ощущает человек, с поправкой на солнечный нагрев. Характеристика знойности погоды. Зависит от высоты солнца над горизонтом, облачности и скорости ветра. Ночью, в пасмурную погоду, а также при ветре 12 м/с и более поправка равна нулю.
P - Атмосферное давление - приведенное к уровню моря атмосферное давление.
Po - Атмосферное давление - измеренное на уровне метеостанции атмосферное давление.
Tmin - Минимальная температура - минимум температуры воздуха на высоте 2 м над землей.
Tmax - Максимальная температура - максимум температуры воздуха на высоте 2 м над землей.
R - Количество осадков - Количество выпавших осадков за период времени, мм. При наведении курсора мыши на число - период времени, за который выпало указанное количество осадков.
R24 - Количество осадков - Количество выпавших осадков за 24 часа, мм.
S - Снежный покров - Высота снежного покрова, см. При наведении курсора мыши на число - состояние снежного покрова и степень покрытия местности в баллах.